Regional Weather Roundup
Issued by NWS New Orleans/Baton Rouge, LA

Home | Current Version | Previous Version | Text Only | Print | Product List | Glossary On
Versions: 1 2 3 4 5 6 7 8 9 10 11 12 13 14 15 16 17 18 19 20 21 22 23 24 25 26 27 28 29 30 31 32 33 34 35 36 37 38 39 40 41 42 43 44 45 46 47 48 49 50
000
ASUS44 KLIX 260413
RWRLIX
NEW ORLEANS REGIONAL WEATHER ROUNDUP
NATIONAL WEATHER SERVICE NEW ORLEANS LA
1100 PM CDT TUE APR 25 2017

NOTE: "FAIR" INDICATES FEW OR NO CLOUDS BELOW 12,000 FEET WITH NO
      SIGNIFICANT WEATHER AND/OR OBSTRUCTIONS TO VISIBILITY.
      SKY/WX - SKY CONDITION AND SIGNIFICANT WEATHER.
      TMP - AIR TEMPERATURE.     DP    - DEWPOINT TEMPERATURE.
      RH  - RELATIVE HUMIDITY.   PRES  - PRESSURE.
      HI  - HEAT INDEX.          WCI   - WIND CHILL INDEX.

*  THESE STATIONS ARE NOT NWS OR FAA STATIONS AND ARE NOT UNDER
   NWS QUALITY CONTROL.

LAZ038-040-048-061>063-065>067-069-260500-
SOUTHEAST LOUISIANA

CITY           SKY/WX    TMP DP  RH WIND       PRES   REMARKS
N.O. INTL ARPT PTCLDY    67  61  81 S6        29.77R
N.O. LAKEFRONT CLEAR     68  60  75 S7        29.78R
N.O. DOWNTOWN*   N/A     71  60  68 S8          N/A
RESERVE*       NOT AVBL
SLIDELL        CLEAR     69  60  73 S8        29.77R
BATON ROUGE    CLEAR     70  62  76 S10       29.73F
BOOTHVILLE     CLEAR     70  61  73 S9        29.80S
BELLE CHASSE   PTCLDY    66  61  84 S6        29.77S
BOGALUSA*      NOT AVBL
GALLIANO*      CLEAR     65  58  78 S3        29.78R
NEW ROADS*       N/A     67  63  84 S9        29.72F
GONZALES*        N/A     66  61  83 S3        29.74F
HAMMOND*       CLEAR     64  59  82 SE5       29.76S
HOUMA*         PTCLDY    69  61  77 S7        29.77R
PORT FOURCHON* CLEAR     72  61  68 S9G15     29.78R

$$

MSZ070-080>082-260500-
SOUTHERN MISSISSIPPI

CITY           SKY/WX    TMP DP  RH WIND       PRES   REMARKS
MCCOMB         CLEAR     65  58  78 S9        29.74S
GULFPORT       MOCLDY    71  59  65 S9        29.78S
BILOXI         PTCLDY    71  59  66 S12       29.78S
PASCAGOULA     CLEAR     64  57  78 S3        29.79S

$$

COASTAL OBSERVATIONS
LAKE AND NEARSHORE STATIONS

STATION/POSITION TIME  TEMP    WIND        PRES    WAVE
                       AIR SEA DIR/SP/G            HT/PER
                 (UTC) (F)     (DEG/KT/KT) (MB)    (FT/S)
PASCAGOULA       0342   71     200/ 10/ 16 1008.4
WAVELAND YACHT   0342   71 75  200/  8/ 14 1008.0
GRAND ISLE       0342   71 75  180/  8/ 11 1007.9
SOUTHWEST PASS   0342          180/ 11/ 16   N/A
NEW CANAL        0342   70 74  170/  3/  4 1007.9
SHELL BEACH      0342   68 74  170/  7/  8 1008.3

OFFSHORE STATIONS

STATION/POSITION TIME  TEMP    WIND        PRES    WAVE
                       AIR SEA DIR/SP/G            HT/PER
                 (UTC) (F)     (DEG/KT/KT) (MB)    (FT/S)
64 S DAUPHIN ISL 0350   72 74  180/ 12/ 14 1009.5    1/ 2

$$




USA.gov is the U.S. government's official web portal to all federal, state and local government web resources and services.